AAUSAT-II (32788 NORAD) Tracking and Keplerian Element Data

This shows tracking and keplerian element data for the satellite.

Feedback or suggestion? Click here.




ElementValue
Catalog32788
NameAAUSAT-II
Epoch Orbit79200
Epoch Day325.19966954
Epoch Year2022
RAAN305.239
Inclination97.5484
Eccentricity0.0010588
Argument of Perigee322.2569
Mean Anonmoly37.7911
Mean Motion14.99026703
Decay Rate4.934E-05
L11 32788U 08021F 22325.19966954 .00004934 00000+0 41116-3 0 9997
L22 32788 97.5484 305.2390 0010588 322.2569 37.7911 14.99026703792007



Live tracking and technical data element details for AAUSAT-II (NORAD 32788). AAUSAT-II can be tracked NOW for your location showing map with azimuth and elevation plus other details from your city location.







IsCatalogInMostPopularTable: catalog: 32788, numindb: 496
Update: records affected: 1



GetName: 32788 AAUSAT-II

Hit Count: updated at: Mon, 28 Nov 2022 05:15:52 GMT